This demonstration page uses our WeatherBlox Daily Observations layout. Learn more.

Left ArrowRight Arrow

41.12389, -100.76542

Hourly Observations for November 30, 2022

Temp ( °F °C ) Dew Point ( °F °C ) Humidity (%) Winds ( mph kmh ) Pressure ( in mb ) Visibility ( mi km ) Precip ( " mm )
12:53 am 00:53 Clear 4 -15.6 -1 -18.3 80 80 NW 9 15 30.29 1026 10 16 0.00 0.00
1:53 am 01:53 Clear 3 -16.1 -2 -18.9 79 79 NW 8 13 30.31 1026 10 16 0.00 0.00
2:53 am 02:53 Clear 1 -17.2 -4 -20 79 79 NW 8 13 30.34 1027 10 16 0.00 0.00
3:53 am 03:53 Clear 1 -17.2 -3 -19.4 83 83 NNW 7 11 30.36 1028 10 16 0.00 0.00
4:53 am 04:53 Clear 1 -17.2 -3 -19.4 83 83 NW 7 11 30.38 1029 10 16 0.00 0.00
5:53 am 05:53 Clear 1 -17.2 -4 -20 79 79 NW 6 9 30.40 1030 10 16 0.00 0.00
6:53 am 06:53 Clear 1 -17.2 -3 -19.4 83 83 NW 5 7 30.42 1030 10 16 0.00 0.00
7:53 am 07:53 Sunny 0 -17.8 -5 -20.6 79 79 Calm 30.45 1031 10 16 0.00 0.00
8:53 am 08:53 Sunny 5 -15 -1 -18.3 76 76 WNW 5 7 30.47 1032 10 16 0.00 0.00
9:53 am 09:53 Sunny 12 -11.1 4 -15.6 69 69 W 8 13 30.48 1032 10 16 0.00 0.00
10:53 am 10:53 Sunny 19 -7.2 8 -13.3 62 62 W 9 15 30.48 1032 10 16 0.00 0.00
11:53 am 11:53 Sunny 24 -4.4 10 -12.2 54 54 WSW 7 11 30.45 1031 10 16 0.00 0.00
12:53 pm 12:53 Sunny 27 -2.8 12 -11.1 53 53 W 3 6 30.41 1030 10 16 0.00 0.00
1:53 pm 13:53 Sunny 30 -1.1 13 -10.6 48 48 WSW 5 7 30.37 1029 10 16 0.00 0.00
2:53 pm 14:53 Sunny 32 0 14 -10 47 47 SSE 9 15 30.33 1027 10 16 0.00 0.00
3:53 pm 15:53 Sunny 34 1.1 14 -10 43 43 S 10 17 30.30 1026 10 16 0.00 0.00
4:53 pm 16:53 Sunny 33 0.6 15 -9.4 47 47 SSE 9 15 30.29 1026 10 16 0.00 0.00
5:53 pm 17:53 Clear 29 -1.7 15 -9.4 56 56 SE 10 17 30.30 1026 10 16 0.00 0.00
6:53 pm 18:53 Clear 27 -2.8 15 -9.4 60 60 SE 10 17 30.29 1026 10 16 0.00 0.00
7:53 pm 19:53 Clear 23 -5 14 -10 68 68 SE 9 15 30.27 1025 10 16 0.00 0.00
8:53 pm 20:53 Clear 26 -3.3 13 -10.6 57 57 SE 9 15 30.24 1024 10 16 0.00 0.00
9:53 pm 21:53 Clear 29 -1.7 14 -10 53 53 SSE 13 20 30.21 1023 10 16 0.00 0.00
10:53 pm 22:53 Clear 29 -1.7 14 -10 53 53 SE 8 13 30.16 1021 10 16 0.00 0.00
11:53 pm 23:53 Clear 28 -2.2 15 -9.4 58 58 SSE 15 24 30.12 1020 10 16 0.00 0.00

Powered by AerisWeather